Location: Bannatyne
(13.0833°N, 59.5333°W)
Time: 05:39:08
(UTC+00:00)

Vanguard 3 - Pass Details

Date: 31 January 2020
Orbit: 508 x 3263 km, 33.3° (Epoch: 17 February)

Event Time Altitude Azimuth Distance (km) Brightness Sun altitude
Rises 16:48:28 0° 230° (SW) 4,649 11.4 58.2°
Reaches altitude 10° 16:51:01 10° 228° (SW) 3,959 11.3 58.0°
Maximum altitude 17:02:27 77° 143° (SE) 2,496 10.9 57.0°
Drops below altitude 10° 17:21:13 10° 60° (ENE) 6,119 11.4 55.0°
Sets 17:26:16 0° 59° (ENE) 7,223 11.7 54.4°
